Weather History for Palma de Mallorca, Spain

Change the Weather History Date:

Tuesday, March 12, 2013

  Actual Average Record
Temperature  
Mean Temperature 56 °F -  
Max Temperature 62 °F 64 °F 73 °F (2008)
Min Temperature 50 °F 43 °F 35 °F (2005)
Degree Days  
Heating Degree Days 9    
Growing Degree Days 6 (Base 50)    
Moisture  
Dew Point 44 °F    
Average Humidity 61    
Maximum Humidity 87    
Minimum Humidity 25    
Precipitation  
Precipitation 0.00 in 0.05 in - ()
Sea Level Pressure  
Sea Level Pressure 29.61 in    
Wind  
Wind Speed 13 mph ()    
Max Wind Speed 22 mph    
Max Gust Speed 30 mph    
Visibility 7.0 miles    
Events      
Averages and records for this station are not official NWS values.
T = Trace of Precipitation, MM = Missing Value Source: Averaged Metar Reports

Daily Weather History Graph

Daily Weather History Graph

Search for Another Location

Airport:

Trip Planner

Search our weather history database for the weather conditions in past years. The results will help you decide how hot, cold, wet, or windy it might be!

Date:

Astronomy

Mar. 12, 2013 Rise Set
Actual Time 7:05 AM CET 6:52 PM CET
Civil Twilight 6:38 AM CET 7:19 PM CET
Nautical Twilight 6:07 AM CET 7:50 PM CET
Astronomical Twilight 5:35 AM CET 8:22 PM CET
Moon 7:03 AM CET (3/12) 7:51 PM CET (3/12)
Length of Visible Light 12h 41m
Length of Day
11h 47m
New Moon, 0% of the Moon is Illuminated
Mar 12
New Moon
Mar 19
First Quarter
Mar 27
Full
Apr 3
Last Quarter
Apr 10
New

Hourly Weather History & Observations

Time (CET) Temp. Dew Point Humidity Pressure Visibility Wind Dir Wind Speed Gust Speed Precip Events Conditions
12:00 AM 59.0 °F 44.6 °F 59% 29.65 in 6.2 mi West 21.9 mph - N/A   Partly Cloudy
12:30 AM 59.0 °F 48.2 °F 67% 29.65 in 6.2 mi WSW 15.0 mph - N/A   Partly Cloudy
1:00 AM 57 °F 44 °F 53% 29.66 in 12 mi WSW 15.0 mph - -   Scattered Clouds
1:00 AM 59.0 °F 48.2 °F 67% 29.65 in 6.2 mi WSW 8.1 mph - N/A   Partly Cloudy
2:00 AM 59.0 °F 44.6 °F 59% 29.65 in 6.2 mi West 13.8 mph - N/A   Partly Cloudy
2:30 AM 59.0 °F 44.6 °F 59% 29.62 in 6.2 mi West 15.0 mph 26.5 mph N/A   Partly Cloudy
3:00 AM 59.0 °F 44.6 °F 59% 29.62 in 6.2 mi West 18.4 mph - N/A   Partly Cloudy
3:30 AM 59.0 °F 44.6 °F 59% 29.62 in 6.2 mi West 19.6 mph - N/A   Partly Cloudy
4:00 AM 59.0 °F 44.6 °F 59% 29.62 in 6.2 mi West 17.3 mph - N/A   Partly Cloudy
4:30 AM 57.2 °F 44.6 °F 63% 29.59 in 6.2 mi West 17.3 mph 29.9 mph N/A   Partly Cloudy
5:00 AM 57.2 °F 44.6 °F 63% 29.59 in 6.2 mi West 21.9 mph - N/A   Partly Cloudy
5:30 AM 57.2 °F 42.8 °F 59% 29.59 in 6.2 mi West 13.8 mph - N/A   Partly Cloudy
6:00 AM 55.4 °F 44.6 °F 67% 29.59 in 6.2 mi West 13.8 mph - N/A   Partly Cloudy
6:30 AM 55.4 °F 44.6 °F 67% 29.59 in 6.2 mi WNW 13.8 mph - N/A   Partly Cloudy
7:00 AM 54 °F 41 °F 51% 29.61 in 16 mi WNW 8.1 mph - -   Scattered Clouds
7:00 AM 55.4 °F 44.6 °F 67% 29.59 in 6.2 mi WNW 11.5 mph - N/A   Partly Cloudy
7:30 AM 55.4 °F 44.6 °F 67% 29.59 in 6.2 mi West 11.5 mph - N/A   Partly Cloudy
8:00 AM 57.2 °F 44.6 °F 63% 29.59 in 6.2 mi West 10.4 mph - N/A   Partly Cloudy
8:30 AM 59.0 °F 44.6 °F 59% 29.62 in 6.2 mi West 16.1 mph - N/A   Partly Cloudy
9:00 AM 59.0 °F 44.6 °F 59% 29.62 in 6.2 mi West 13.8 mph - N/A   Partly Cloudy
9:30 AM 59.0 °F 44.6 °F 59% 29.62 in 6.2 mi West 17.3 mph - N/A   Partly Cloudy
10:00 AM 60.8 °F 46.4 °F 59% 29.65 in 6.2 mi West 18.4 mph - N/A   Partly Cloudy
10:30 AM 60.8 °F 44.6 °F 55% 29.62 in 6.2 mi West 18.4 mph - N/A   Partly Cloudy
11:00 AM 60.8 °F 42.8 °F 52% 29.62 in 6.2 mi West 17.3 mph - N/A   Partly Cloudy
11:30 AM 60.8 °F 42.8 °F 52% 29.62 in 6.2 mi West 15.0 mph - N/A   Partly Cloudy
12:00 PM 62.6 °F 39.2 °F 42% 29.62 in 6.2 mi NW 12.7 mph - N/A   Partly Cloudy
12:30 PM 60.8 °F 41.0 °F 48% 29.62 in 6.2 mi NW 15.0 mph - N/A   Partly Cloudy
1:00 PM 62 °F 35 °F 25% 29.64 in 19 mi NW 11.5 mph - -   Scattered Clouds
1:00 PM 60.8 °F 41.0 °F 48% 29.62 in 6.2 mi WNW 13.8 mph - N/A   Partly Cloudy
1:30 PM 62.6 °F 42.8 °F 48% 29.62 in 6.2 mi West 13.8 mph - N/A   Partly Cloudy
2:00 PM 60.8 °F 44.6 °F 55% 29.62 in 6.2 mi WSW 19.6 mph - N/A   Partly Cloudy
2:30 PM 62.6 °F 44.6 °F 52% 29.62 in 6.2 mi WSW 18.4 mph - N/A   Partly Cloudy
3:00 PM 60.8 °F 46.4 °F 59% 29.62 in 6.2 mi WSW 18.4 mph - N/A   Partly Cloudy
3:30 PM 60.8 °F 44.6 °F 55% 29.62 in 6.2 mi WSW 19.6 mph - N/A   Partly Cloudy
4:30 PM 59.0 °F 44.6 °F 59% 29.59 in 6.2 mi WSW 16.1 mph - N/A   Partly Cloudy
5:00 PM 57.2 °F 44.6 °F 63% 29.59 in 6.2 mi WSW 15.0 mph - N/A   Partly Cloudy
5:30 PM 57.2 °F 44.6 °F 63% 29.59 in 6.2 mi WSW 15.0 mph - N/A   Partly Cloudy
6:00 PM 57.2 °F 44.6 °F 63% 29.59 in 6.2 mi WSW 12.7 mph - N/A   Partly Cloudy
6:30 PM 55.4 °F 42.8 °F 63% 29.59 in 6.2 mi WSW 8.1 mph - N/A   Partly Cloudy
7:00 PM 55 °F 41 °F 47% 29.60 in 16 mi WSW 9.2 mph - -   Scattered Clouds
7:00 PM 55.4 °F 44.6 °F 67% 29.59 in 6.2 mi WSW 6.9 mph - N/A   Partly Cloudy
7:30 PM 55.4 °F 46.4 °F 72% 29.59 in 6.2 mi SW 6.9 mph - N/A   Partly Cloudy
8:00 PM 55.4 °F 46.4 °F 72% 29.59 in 6.2 mi WSW 5.8 mph - N/A   Partly Cloudy
8:30 PM 55.4 °F 48.2 °F 77% 29.59 in 6.2 mi WSW 4.6 mph - N/A   Partly Cloudy
9:00 PM 53.6 °F 46.4 °F 77% 29.59 in 6.2 mi Variable 1.2 mph - N/A   Partly Cloudy
9:30 PM 55.4 °F 48.2 °F 77% 29.56 in 6.2 mi East 2.3 mph - N/A   Partly Cloudy
10:00 PM 50.0 °F 44.6 °F 82% 29.56 in 6.2 mi Variable 1.2 mph - N/A   Partly Cloudy
10:30 PM 50.0 °F 44.6 °F 82% 29.56 in 6.2 mi Calm Calm - N/A   Partly Cloudy
11:00 PM 50.0 °F 46.4 °F 87% 29.56 in 6.2 mi Calm Calm - N/A   Partly Cloudy
11:30 PM 50.0 °F 44.6 °F 82% 29.53 in 6.2 mi East 3.5 mph - N/A   Scattered Clouds